Regional Weather Roundup
Issued by NWS

Home | Current Version | Previous Version | Graphics & Text | Print | Product List | Glossary Off
Versions: 1 2 3 4 5 6 7 8 9 10 11 12 13 14 15 16 17 18 19 20 21 22 23 24 25 26 27

000
ASUS45 KBOU 200910
RWRCO

WEATHER ROUNDUP FOR COLORADO
NATIONAL WEATHER SERVICE DENVER/BOULDER CO
200 AM MST MON NOV 20 2017

NOTE: "FAIR" INDICATES FEW OR NO CLOUDS BELOW 12000 FEET WITH NO
SIGNIFICANT WEATHER AND/OR OBSTRUCTIONS TO VISIBILITY.

COZ001>005-013-030-031-201000-
...NORTHWEST COLORADO...

CITY           SKY/WX    TMP DP  RH WIND       PRES   REMARKS
CRAIG          FAIR      15  10  80 CALM      30.14F
HAYDEN         FAIR      20  13  74 SE12      30.15R WCI   8
MEEKER         FAIR      19  13  77 NE3       30.16R
RABBIT EARS PA FAIR      19   7  58 W9G23     30.13S WCI   9
STEAMBOAT SPGS FAIR      15  13  91 CALM      30.13F
WALDEN         FAIR      32   1  27 S17G23    30.09R WCI  21
$$

COZ006>008-011-201000-
...WEST CENTRAL VALLEYS...

CITY           SKY/WX    TMP DP  RH WIND       PRES   REMARKS
GRAND JUNCTION FAIR      22  14  71 E6        30.20S WCI  14
MONTROSE       FAIR      21  15  78 SE8       30.23S WCI  11
EAGLE          FAIR      18  13  80 CALM      30.23S
RIFLE          FAIR      20  16  84 CALM      30.23R
DELTA          FAIR      21  15  75 N5        30.22S WCI  15
NUCLA          FAIR      25   9  50 E8        30.24F WCI  16
$$

COZ017>023-064>068-201000-
...SOUTHWEST COLORADO...

CITY           SKY/WX    TMP DP  RH WIND       PRES   REMARKS
DURANGO        FAIR      19  12  74 N5        30.19F WCI  12
CORTEZ         FAIR      15   8  73 E8        30.21F WCI   4
PAGOSA SPRINGS FAIR      20  13  73 CALM      30.19F
TELLURIDE      FAIR      26   1  34 SE3       30.25S
WOLF CREEK PAS FAIR      27 -15  15 SW9       30.30S WCI  17
$$

COZ009-010-012-014-032>034-037-058>063-201000-
...CENTRAL COLORADO...

CITY           SKY/WX    TMP DP  RH WIND       PRES   REMARKS
ASPEN          FAIR      18   9  68 SW8       30.17F WCI   8
BUENA VISTA    FAIR      23   8  53 CALM      30.11F
COPPER MTN     FAIR      28 -20  11 W12       30.22R WCI  18
BERTHOUD PASS  FAIR      19   9  63 NW39G48   30.13R WCI  -2
COTTONWOOD PAS FAIR      39 -26   5 W18G29    30.13F
GUNNISON       FAIR       8   6  92 CALM      30.27F
KREMMLING      FAIR      19  12  73 CALM      30.17S
LEADVILLE      FAIR      18  -6  34 NE9       30.16F WCI   7
MONARCH PASS   FAIR      19  -8  30 W44G51    30.26S WCI  -2
SALIDA         FAIR      33   3  28 N9        30.17S WCI  26
SUNLIGHT       FAIR      21  -6  30 SW15G22   30.24S WCI   8
WILKERSON PASS FAIR      27 -17  14 W13G22    30.14S WCI  16
$$

COZ069>075-201000-
...SAN LUIS VALLEY/SANGRE DE CRISTO MOUNTAINS...

CITY           SKY/WX    TMP DP  RH WIND       PRES   REMARKS
ALAMOSA        FAIR      10   6  84 SW6       30.16F WCI   0
DEL NORTE      FAIR      24   6  45 W12       30.17F WCI  13
LA VETA PASS   FAIR      27   3  36 SW31G41     N/A  WCI  10
SAGUACHE       FAIR      21   5  49 N8        30.18F WCI  12
$$

COZ035-036-038>040-201000-
...NORTHERN COLORADO FRONT RANGE...

CITY           SKY/WX    TMP DP  RH WIND       PRES   REMARKS
DENVER INTL AP FAIR      43   4  19 S16       29.88F
DMNS CITY PARK   N/A     44  -3  14 SE8       29.89S
AURORA         PTCLDY    37   6  27 S14       29.89F
FRONT RANGE AP FAIR      45   6  20 SW16      29.89F
ERIE MUNI ARPT FAIR      38   6  25 CALM      29.91S
BOULDER MUN AP FAIR      41   9  26 CALM      29.86S
CENTENNIAL     FAIR      43   4  19 S12       29.90F
BROOMFIELD     FAIR      45   1  16 S5        29.89S
FORT COLLINS   FAIR      26  20  77 N9        29.87F WCI  17
LONGMONT       FAIR      39  10  30 N3        29.88R
$$

COZ041-046-047-076>085-087-088-201000-
...PIKES PEAK/PALMER DIVIDE AND SOUTHERN FOOTHILLS...

CITY           SKY/WX    TMP DP  RH WIND       PRES   REMARKS
COLO. SPRINGS  FAIR      41   6  23 NE3       29.95F
A. F. ACADEMY  FAIR      48 -13   7 W23G36    29.94F
SCHRIEVER AFB  FAIR      37  -4  17 NW7       29.95F
CHEYENNE MTN   FAIR      48  -7  10 SW12      29.91F
ELLICOTT       NOT AVBL
FALCON         FAIR      41  -8  12 NW14      29.96F
FORT CARSON    FAIR      32   8  36 W5        29.92F WCI  28
LIMON          FAIR      19  11  70 N7        29.92F WCI  10
MONUMENT HILL  FAIR      34   1  25 SW13      29.97F WCI  25
CANON CITY     CLEAR     45   1  16 W17       29.96S
WALSENBURG     FAIR      46   1  15 W18       29.98F
TRINIDAD       FAIR      34  13  41 W15       29.98F WCI  24
$$

COZ042>045-048>051-090-091-201000-
...NORTHEAST COLORADO...

CITY           SKY/WX    TMP DP  RH WIND       PRES   REMARKS
GREELEY ARPT   FAIR      22  16  78 NW7       29.87F WCI  13
AKRON          FAIR      38  11  32 SW15      29.86F
BURLINGTON     FAIR      27  15  61 W7        29.88F WCI  19
WRAY           NOT AVBL
YUMA           FAIR      30  14  51 W7        29.85F WCI  23
STERLING       FAIR      19  18  93 S7        29.84F WCI  10
HOLYOKE        FAIR      30  18  59 W7        29.83F WCI  23
FORT MORGAN    FAIR      26  11  54 SW6       29.87F WCI  19
$$

COZ086-089-092>099-201000-
...SOUTHEAST COLORADO...

CITY           SKY/WX    TMP DP  RH WIND       PRES   REMARKS
PUEBLO         FAIR      38   8  29 NE6       29.91F
LA JUNTA       FAIR      32  16  51 W3        29.93S
LAMAR          FAIR      23  14  68 SW5       29.91S WCI  17
SPRINGFIELD      N/A     36  13  38 W10       29.92F
$$




USA.gov is the U.S. government's official web portal to all federal, state and local government web resources and services.